Hourly Weather Minsk

Today, 24 September, Thursday

Time Temperature Precipitation Wind Pressure Humidity
00:00 +12°C° 0 mm 3 mps 740 mmHg 64%
01:00 +12°C° 0 mm 3 mps 740 mmHg 63%
02:00 +11°C° 0 mm 3 mps 740 mmHg 59%
03:00 +11°C° 0 mm 3 mps 740 mmHg 60%
04:00 +10°C° 0 mm 3 mps 740 mmHg 61%
05:00 +10°C° 0 mm 3 mps 739 mmHg 61%
06:00 +11°C° 0 mm 3 mps 739 mmHg 61%
07:00 +11°C° 0 mm 4 mps 739 mmHg 60%
08:00 +12°C° 0 mm 4 mps 739 mmHg 59%
09:00 +14°C° 0 mm 4 mps 740 mmHg 56%
10:00 +15°C° 0 mm 4 mps 740 mmHg 53%
11:00 +17°C° 0 mm 5 mps 740 mmHg 49%
12:00 +19°C° 0 mm 5 mps 740 mmHg 47%
13:00 +20°C° 0 mm 5 mps 740 mmHg 45%
14:00 +21°C° 0 mm 5 mps 740 mmHg 43%
15:00 +20°C° 0 mm 4 mps 740 mmHg 47%
16:00 +19°C° 0 mm 4 mps 739 mmHg 52%
17:00 +18°C° 0 mm 3 mps 739 mmHg 57%
18:00 +17°C° 0 mm 3 mps 739 mmHg 59%
19:00 +16°C° 0 mm 3 mps 739 mmHg 61%
20:00 +14°C° 0 mm 3 mps 739 mmHg 63%
21:00 +14°C° 0 mm 3 mps 739 mmHg 64%
22:00 +13°C° 0 mm 3 mps 739 mmHg 65%
23:00 +13°C° 0 mm 3 mps 739 mmHg 66%

Tomorrow, 25 September, Friday

Time Temperature Precipitation Wind Pressure Humidity
00:00 +13°C° 0 mm 3 mps 739 mmHg 67%
01:00 +12°C° 0 mm 3 mps 739 mmHg 69%
02:00 +12°C° 0 mm 3 mps 739 mmHg 71%
03:00 +12°C° 0 mm 3 mps 739 mmHg 73%
04:00 +11°C° 0 mm 3 mps 739 mmHg 75%
05:00 +11°C° 0 mm 3 mps 739 mmHg 76%
06:00 +12°C° 0 mm 3 mps 738 mmHg 73%
07:00 +12°C° 0 mm 4 mps 738 mmHg 69%
08:00 +13°C° 0 mm 4 mps 738 mmHg 66%
09:00 +15°C° 0 mm 4 mps 738 mmHg 62%
10:00 +18°C° 0 mm 4 mps 738 mmHg 58%
11:00 +20°C° 0 mm 4 mps 738 mmHg 55%
12:00 +21°C° 0 mm 5 mps 738 mmHg 53%
13:00 +22°C° 0 mm 5 mps 738 mmHg 52%
14:00 +23°C° 0 mm 5 mps 737 mmHg 50%
15:00 +22°C° 0 mm 5 mps 737 mmHg 54%
16:00 +21°C° 0 mm 5 mps 737 mmHg 58%
17:00 +20°C° 0 mm 4 mps 737 mmHg 62%
18:00 +19°C° 0.1 mm 5 mps 737 mmHg 64%
19:00 +17°C° 0.1 mm 5 mps 737 mmHg 65%
20:00 +16°C° 0.1 mm 5 mps 737 mmHg 67%
21:00 +16°C° 0 mm 5 mps 737 mmHg 67%
22:00 +15°C° 0 mm 5 mps 736 mmHg 68%
23:00 +15°C° 0 mm 5 mps 736 mmHg 68%

Day after tomorrow, 26 September, Saturday

Time Temperature Precipitation Wind Pressure Humidity
00:00 +15°C° 0 mm 5 mps 736 mmHg 70%
01:00 +15°C° 0 mm 5 mps 736 mmHg 72%
02:00 +14°C° 0 mm 5 mps 736 mmHg 73%
03:00 +14°C° 0 mm 5 mps 736 mmHg 74%
04:00 +14°C° 0 mm 5 mps 736 mmHg 75%
05:00 +14°C° 0 mm 5 mps 736 mmHg 76%
06:00 +14°C° 0 mm 5 mps 736 mmHg 75%
07:00 +15°C° 0 mm 6 mps 736 mmHg 74%
08:00 +15°C° 0 mm 6 mps 736 mmHg 72%
09:00 +17°C° 0 mm 6 mps 736 mmHg 67%
10:00 +20°C° 0 mm 7 mps 737 mmHg 63%
11:00 +22°C° 0 mm 7 mps 737 mmHg 58%
12:00 +22°C° 0 mm 7 mps 737 mmHg 56%
13:00 +23°C° 0 mm 7 mps 737 mmHg 54%
14:00 +24°C° 0 mm 7 mps 737 mmHg 53%
15:00 +23°C° 0 mm 7 mps 737 mmHg 55%
16:00 +22°C° 0 mm 6 mps 737 mmHg 57%
17:00 +21°C° 0 mm 6 mps 737 mmHg 59%
18:00 +20°C° 0 mm 6 mps 737 mmHg 60%
19:00 +19°C° 0 mm 6 mps 737 mmHg 61%
20:00 +17°C° 0 mm 6 mps 737 mmHg 62%
21:00 +17°C° 0 mm 6 mps 737 mmHg 62%
22:00 +17°C° 0 mm 6 mps 737 mmHg 62%
23:00 +16°C° 0 mm 6 mps 738 mmHg 63%

27 September, Sunday

Time Temperature Precipitation Wind Pressure Humidity
00:00 +16°C° 0 mm 6 mps 737 mmHg 61%
01:00 +15°C° 0 mm 6 mps 737 mmHg 59%
02:00 +15°C° 0 mm 6 mps 737 mmHg 58%
03:00 +15°C° 0 mm 6 mps 737 mmHg 57%
04:00 +14°C° 0 mm 6 mps 737 mmHg 57%
05:00 +14°C° 0 mm 6 mps 737 mmHg 57%
06:00 +14°C° 0 mm 7 mps 737 mmHg 56%
07:00 +14°C° 0 mm 7 mps 737 mmHg 56%
08:00 +14°C° 0 mm 7 mps 737 mmHg 56%
09:00 +16°C° 0 mm 8 mps 737 mmHg 55%
10:00 +17°C° 0 mm 8 mps 737 mmHg 54%
11:00 +18°C° 0 mm 9 mps 737 mmHg 54%
12:00 +19°C° 0 mm 9 mps 737 mmHg 53%
13:00 +19°C° 0 mm 9 mps 736 mmHg 52%
14:00 +21°C° 0 mm 9 mps 736 mmHg 52%
15:00 +19°C° 0.1 mm 9 mps 736 mmHg 55%
16:00 +18°C° 0.1 mm 8 mps 736 mmHg 59%
17:00 +17°C° 0.1 mm 8 mps 737 mmHg 62%
18:00 +16°C° 0.2 mm 8 mps 737 mmHg 68%
19:00 +15°C° 0.2 mm 8 mps 737 mmHg 74%
20:00 +13°C° 0.2 mm 8 mps 737 mmHg 80%
21:00 +14°C° 0 mm 7 mps 738 mmHg 81%
22:00 +14°C° 0 mm 6 mps 738 mmHg 81%
23:00 +14°C° 0 mm 5 mps 738 mmHg 82%

28 September, Monday

Time Temperature Precipitation Wind Pressure Humidity
00:00 +13°C° 0 mm 4 mps 739 mmHg 85%
01:00 +12°C° 0 mm 3 mps 739 mmHg 89%
02:00 +12°C° 0 mm 2 mps 739 mmHg 93%
03:00 +12°C° 0 mm 2 mps 740 mmHg 92%
04:00 +11°C° 0 mm 1 mps 740 mmHg 91%
05:00 +11°C° 0 mm 1 mps 740 mmHg 91%
06:00 +11°C° 0 mm 1 mps 740 mmHg 87%
07:00 +12°C° 0 mm 2 mps 741 mmHg 83%
08:00 +12°C° 0 mm 2 mps 741 mmHg 80%
09:00 +14°C° 0 mm 2 mps 741 mmHg 72%
10:00 +15°C° 0 mm 2 mps 741 mmHg 64%
11:00 +16°C° 0 mm 1 mps 742 mmHg 56%
12:00 +17°C° 0 mm 2 mps 742 mmHg 55%
13:00 +17°C° 0 mm 2 mps 742 mmHg 54%
14:00 +17°C° 0 mm 2 mps 742 mmHg 53%
15:00 +17°C° 0 mm 2 mps 742 mmHg 57%
16:00 +16°C° 0 mm 2 mps 742 mmHg 61%
17:00 +16°C° 0 mm 2 mps 742 mmHg 66%
18:00 +14°C° 0 mm 2 mps 742 mmHg 72%
19:00 +13°C° 0 mm 2 mps 742 mmHg 79%
20:00 +12°C° 0 mm 2 mps 742 mmHg 86%
21:00 +12°C° 0 mm 2 mps 742 mmHg 87%
22:00 +11°C° 0 mm 3 mps 742 mmHg 88%
23:00 +11°C° 0 mm 3 mps 742 mmHg 89%

29 September, Tuesday

Time Temperature Precipitation Wind Pressure Humidity
00:00 +11°C° 0.1 mm 3 mps 742 mmHg 90%
01:00 +11°C° 0.1 mm 3 mps 742 mmHg 90%
02:00 +11°C° 0.1 mm 4 mps 741 mmHg 91%
03:00 +11°C° 0.5 mm 4 mps 741 mmHg 92%
04:00 +11°C° 0.5 mm 3 mps 741 mmHg 93%
05:00 +11°C° 0.5 mm 3 mps 740 mmHg 94%
06:00 +12°C° 0.4 mm 4 mps 740 mmHg 93%
07:00 +12°C° 0.4 mm 4 mps 740 mmHg 92%
08:00 +12°C° 0.4 mm 5 mps 740 mmHg 91%
09:00 +13°C° 0.2 mm 5 mps 739 mmHg 90%
10:00 +13°C° 0.2 mm 5 mps 739 mmHg 88%
11:00 +14°C° 0.2 mm 5 mps 739 mmHg 86%
12:00 +14°C° 0.4 mm 5 mps 739 mmHg 86%
13:00 +14°C° 0.4 mm 4 mps 739 mmHg 87%
14:00 +14°C° 0.4 mm 4 mps 739 mmHg 87%
15:00 +14°C° 0.4 mm 4 mps 738 mmHg 88%
16:00 +14°C° 0.4 mm 3 mps 738 mmHg 89%
17:00 +14°C° 0.4 mm 3 mps 738 mmHg 91%
18:00 +13°C° 0.5 mm 3 mps 738 mmHg 92%
19:00 +13°C° 0.5 mm 3 mps 738 mmHg 94%
20:00 +13°C° 0.5 mm 3 mps 738 mmHg 95%
21:00 +13°C° 0.3 mm 3 mps 738 mmHg 95%
22:00 +13°C° 0.3 mm 3 mps 738 mmHg 94%
23:00 +14°C° 0.3 mm 2 mps 738 mmHg 94%
Show more